Location: Unspecified
(50.7693°N, 0.0000°E)
Time: 06:55:29
(UTC+00:00)

Transit 2A - Pass Details

Date: 19 August 2020
Orbit: 591 x 967 km, 66.7° (Epoch: 20 September)

Event Time Altitude Azimuth Distance (km) Brightness Sun altitude
Rises 00:53:33 0° 320° (NW) 3,664 10.0 -25.6°
Reaches altitude 10° 00:56:22 10° 329° (NNW) 2,717 9.4 -25.5°
Maximum altitude 01:02:17 37° 35° (NE) 1,440 7.8 -25.3°
Drops below altitude 10° 01:07:57 10° 102° (ESE) 2,610 8.8 -25.0°
Sets 01:10:36 0° 111° (ESE) 3,503 9.4 -24.9°
